Location: Nassau
(25.0830°N, 77.3500°W)
Time: 15:13:45
(UTC-05:00)

ISS - All Passes

Search period start: 18 February 2018 00:00
Search period end: 28 February 2018 00:00
Orbit: 403 x 407 km, 51.6° (Epoch: 19 February)

Date Brightness Start Highest point End Pass type
(mag) Time Alt. Az. Time Alt. Az. Time Alt. Az.
18 Feb - 08:39:22 10° WSW 08:42:31 45° NW 08:45:40 10° NNE daylight
18 Feb - 16:50:04 10° NNW 16:53:06 36° NE 16:56:08 10° ESE daylight
18 Feb - 18:29:10 10° WSW 18:29:15 10° SW 18:29:21 10° SW visible
19 Feb - 07:47:07 10° SSW 07:50:21 67° SE 07:53:34 10° NE daylight
19 Feb - 15:58:35 10° N 16:00:49 17° NE 16:03:03 10° E daylight
19 Feb - 17:34:34 10° WNW 17:37:14 23° SW 17:39:53 10° S daylight
20 Feb - 06:55:28 10° S 06:58:14 25° SE 07:01:00 10° ENE daylight
20 Feb - 08:32:34 10° W 08:34:41 16° NW 08:36:48 10° N daylight
20 Feb - 16:41:55 10° NW 16:45:08 60° SW 16:48:20 10° SSE daylight
21 Feb - 06:05:12 10° SE 06:06:10 11° SE 06:07:09 10° ESE visible
21 Feb - 07:39:22 10° WSW 07:42:21 33° NW 07:45:21 10° NNE daylight
21 Feb - 15:49:45 10° NNW 15:52:56 50° NE 15:56:06 10° SE daylight
22 Feb - 06:46:51 10° SW 06:50:07 85° NW 06:53:23 10° NE daylight
22 Feb - 14:58:02 10° N 15:00:38 22° NE 15:03:15 10° E daylight
22 Feb - 16:34:43 10° W 16:36:57 17° SW 16:39:12 10° S daylight
23 Feb - 05:54:56 10° SSW 05:57:57 35° SE 06:00:58 10° ENE visible
23 Feb - 07:32:58 10° WNW 07:34:29 13° NW 07:36:00 10° NNW daylight
23 Feb - 14:07:14 10° NNE 14:08:14 11° NE 14:09:14 10° ENE daylight
23 Feb - 15:41:44 10° NW 15:44:50 42° SW 15:47:55 10° SSE daylight
24 Feb - 05:03:53 10° SSE 05:05:50 15° SE 05:07:47 10° E visible
24 Feb - 06:39:20 10° WSW 06:42:06 25° NW 06:44:52 10° NNE daylight
24 Feb - 14:49:24 10° NW 14:52:38 71° NE 14:55:53 10° SE daylight
25 Feb - 05:46:34 10° SW 05:49:47 60° NW 05:53:01 10° NNE visible
25 Feb - 13:57:28 10° NNW 14:00:20 28° NE 14:03:13 10° ESE daylight
25 Feb - 15:35:00 10° W 15:36:34 13° SW 15:38:07 10° SSW daylight
26 Feb - 04:54:23 10° SSW 04:57:34 49° SE 05:00:44 10° NE visible
26 Feb - 13:06:07 10° N 13:07:56 14° NE 13:09:45 10° ENE daylight
26 Feb - 14:41:32 10° WNW 14:44:26 30° SW 14:47:19 10° S daylight
27 Feb - 04:02:55 10° S 04:05:23 20° SE 04:07:52 10° ENE visible
27 Feb - 05:39:16 10° W 05:41:44 20° NW 05:44:12 10° N visible
27 Feb - 13:48:58 10° NW 13:52:13 81° SW 13:55:27 10° SE daylight
